| time (UTC) | temp F | wind direction | speed MPH | gust MPH | rain 1hr in | rain 24hr in | rain mn in | humidity % | barometer mb |
| 20260502202936 | 65 | 122 | 1.0 | 2.0 | 0.00 | 0.00 | 0.00 | 24 | 1021.9 |
| 20260502202433 | 69 | 113 | 2.0 | 2.0 | 0.00 | 0.00 | 0.00 | 22 | 1022.1 |
| 20260502201931 | 68 | 253 | 1.0 | 1.0 | 0.00 | 0.00 | 0.00 | 20 | 1022.4 |
| 20260502201426 | 68 | 98 | 1.0 | 1.0 | 0.00 | 0.00 | 0.00 | 24 | 1022.1 |
| 20260502200924 | 69 | 92 | 1.0 | 2.0 | 0.00 | 0.00 | 0.00 | 22 | 1022.3 |
| 20260502200419 | 67 | 44 | 2.0 | 3.0 | 0.00 | 0.00 | 0.00 | 22 | 1022.3 |
| 20260502195917 | 66 | 254 | 1.0 | 1.0 | 0.00 | 0.00 | 0.00 | 23 | 1022.0 |
| 20260502195414 | 66 | 23 | 1.0 | 1.0 | 0.00 | 0.00 | 0.00 | 23 | 1022.5 |
| 20260502194910 | 66 | 90 | 1.0 | 1.0 | 0.00 | 0.00 | 0.00 | 23 | 1022.6 |
| 20260502194408 | 65 | 220 | 1.0 | 1.0 | 0.00 | 0.00 | 0.00 | 22 | 1022.8 |
| 20260502193903 | 64 | 198 | 0.0 | 1.0 | 0.00 | 0.00 | 0.00 | 24 | 1022.8 |
| 20260502193401 | 65 | 100 | 3.0 | 3.0 | 0.00 | 0.00 | 0.00 | 25 | 1022.3 |
| 20260502192855 | 65 | 146 | 3.0 | 3.0 | 0.00 | 0.00 | 0.00 | 24 | 1022.9 |
| 20260502192353 | 65 | 283 | 3.0 | 3.0 | 0.00 | 0.00 | 0.00 | 24 | 1022.5 |
| 20260502191850 | 66 | 256 | 4.0 | 6.0 | 0.00 | 0.00 | 0.00 | 23 | 1022.8 |
| 20260502191348 | 65 | 236 | 1.0 | 1.0 | 0.00 | 0.00 | 0.00 | 25 | 1023.0 |
| 20260502190845 | 64 | 182 | 1.0 | 1.0 | 0.00 | 0.00 | 0.00 | 25 | 1022.8 |
| 20260502190342 | 65 | 121 | 2.0 | 2.0 | 0.00 | 0.00 | 0.00 | 24 | 1022.9 |
| 20260502185838 | 64 | 136 | 1.0 | 1.0 | 0.00 | 0.00 | 0.00 | 26 | 1023.2 |
| 20260502185334 | 64 | 142 | 1.0 | 1.0 | 0.00 | 0.00 | 0.00 | 25 | 1023.4 |
| 20260502184831 | 65 | 208 | 2.0 | 2.0 | 0.00 | 0.00 | 0.00 | 28 | 1023.4 |
| 20260502184326 | 65 | 104 | 0.0 | 1.0 | 0.00 | 0.00 | 0.00 | 26 | 1023.5 |
| 20260502183823 | 63 | 96 | 0.0 | 1.0 | 0.00 | 0.00 | 0.00 | 27 | 1023.4 |
| 20260502183320 | 64 | 206 | 2.0 | 3.0 | 0.00 | 0.00 | 0.00 | 25 | 1023.6 |
| 20260502182815 | 64 | 210 | 0.0 | 0.0 | 0.00 | 0.00 | 0.00 | 24 | 1023.6 |
| 20260502182310 | 64 | 245 | 2.0 | 2.0 | 0.00 | 0.00 | 0.00 | 25 | 1023.5 |
| 20260502181807 | 64 | 219 | 1.0 | 2.0 | 0.00 | 0.00 | 0.00 | 26 | 1023.7 |
| 20260502181306 | 63 | 296 | 3.0 | 3.0 | 0.00 | 0.00 | 0.00 | 32 | 1023.8 |
| 20260502180803 | 63 | 280 | 4.0 | 6.0 | 0.00 | 0.00 | 0.00 | 27 | 1023.7 |
| 20260502180301 | 62 | 244 | 3.0 | 3.0 | 0.00 | 0.00 | 0.00 | 29 | 1023.8 |
| 20260502170220 | 59 | 155 | 1.0 | 2.0 | 0.00 | 0.00 | 0.00 | 31 | 1024.0 |
| 20260502164207 | 58 | 163 | 1.0 | 1.0 | 0.00 | 0.00 | 0.00 | 34 | 1024.6 |
| 20260502163702 | 58 | 49 | 1.0 | 1.0 | 0.00 | 0.00 | 0.00 | 37 | 1024.7 |
| 20260502163159 | 58 | 248 | 1.0 | 1.0 | 0.00 | 0.00 | 0.00 | 33 | 1024.5 |
| 20260502162656 | 57 | 103 | 0.0 | 0.0 | 0.00 | 0.00 | 0.00 | 37 | 1024.3 |
| 20260502162153 | 57 | 95 | 0.0 | 1.0 | 0.00 | 0.00 | 0.00 | 38 | 1024.6 |
| 20260502161650 | 57 | 127 | 0.0 | 0.0 | 0.00 | 0.00 | 0.00 | 37 | 1024.7 |
| 20260502161146 | 56 | 193 | 1.0 | 1.0 | 0.00 | 0.00 | 0.00 | 36 | 1024.7 |
| 20260502160645 | 55 | 81 | 0.0 | 1.0 | 0.00 | 0.00 | 0.00 | 42 | 1024.5 |
| 20260502160143 | 54 | 69 | 0.0 | 1.0 | 0.00 | 0.00 | 0.00 | 40 | 1024.7 |
| 20260502152057 | 53 | 156 | 0.0 | 0.0 | 0.00 | 0.00 | 0.00 | 46 | 1025.3 |
| 20260502151554 | 53 | 81 | 1.0 | 2.0 | 0.00 | 0.00 | 0.00 | 44 | 1025.1 |
| 20260502151052 | 50 | 127 | 0.0 | 1.0 | 0.00 | 0.00 | 0.00 | 50 | 1024.9 |
| 20260502150549 | 51 | 51 | 1.0 | 1.0 | 0.00 | 0.00 | 0.00 | 48 | 1025.3 |
| 20260502130434 | 29 | 154 | 0.0 | 0.0 | 0.00 | 0.00 | 0.00 | 99 | 1025.4 |
| 20260502123416 | 28 | 180 | 0.0 | 0.0 | 0.00 | 0.00 | 0.00 | 99 | 1025.1 |
| 20260502122914 | 29 | 184 | 0.0 | 0.0 | 0.00 | 0.00 | 0.00 | 99 | 1025.3 |
| 20260502122410 | 28 | 173 | 0.0 | 0.0 | 0.00 | 0.00 | 0.00 | 99 | 1024.9 |
| 20260502121908 | 28 | 173 | 0.0 | 0.0 | 0.00 | 0.00 | 0.00 | 99 | 1025.1 |
| 20260502121405 | 28 | 173 | 0.0 | 0.0 | 0.00 | 0.00 | 0.00 | 99 | 1025.1 |
| 20260502120903 | 29 | 154 | 0.0 | 0.0 | 0.00 | 0.00 | 0.00 | 99 | 1024.7 |
| 20260502120358 | 29 | 142 | 0.0 | 0.0 | 0.00 | 0.00 | 0.00 | 99 | 1024.7 |
| 20260502115856 | 29 | 147 | 0.0 | 0.0 | 0.00 | 0.00 | 0.00 | 99 | 1024.9 |
| 20260502115353 | 29 | 148 | 0.0 | 0.0 | 0.00 | 0.00 | 0.00 | 99 | 1024.7 |
| 20260502114849 | 30 | 147 | 0.0 | 0.0 | 0.00 | 0.00 | 0.00 | 99 | 1025.1 |
| 20260502114346 | 29 | 152 | 0.0 | 0.0 | 0.00 | 0.00 | 0.00 | 99 | 1024.7 |
| 20260502113843 | 29 | 162 | 0.0 | 0.0 | 0.00 | 0.00 | 0.00 | 99 | 1024.6 |
| 20260502113341 | 29 | 162 | 0.0 | 0.0 | 0.00 | 0.00 | 0.00 | 98 | 1024.7 |
| 20260502112839 | 29 | 162 | 0.0 | 0.0 | 0.00 | 0.00 | 0.00 | 98 | 1024.8 |
| 20260502112336 | 29 | 160 | 0.0 | 0.0 | 0.00 | 0.00 | 0.00 | 98 | 1024.3 |
| 20260502111834 | 30 | 158 | 0.0 | 0.0 | 0.00 | 0.00 | 0.00 | 98 | 1024.5 |
| 20260502111331 | 30 | 147 | 0.0 | 0.0 | 0.00 | 0.00 | 0.00 | 98 | 1024.3 |
| 20260502110828 | 29 | 147 | 0.0 | 0.0 | 0.00 | 0.00 | 0.00 | 98 | 1024.5 |
| 20260502110326 | 29 | 147 | 0.0 | 0.0 | 0.00 | 0.00 | 0.00 | 98 | 1024.5 |
| 20260502105823 | 30 | 146 | 0.0 | 0.0 | 0.00 | 0.00 | 0.00 | 98 | 1024.6 |
| 20260502105320 | 30 | 146 | 0.0 | 0.0 | 0.00 | 0.00 | 0.00 | 98 | 1024.2 |
| 20260502104818 | 29 | 160 | 0.0 | 0.0 | 0.00 | 0.00 | 0.00 | 98 | 1024.3 |
| 20260502104315 | 29 | 167 | 0.0 | 0.0 | 0.00 | 0.00 | 0.00 | 98 | 1024.5 |
| 20260502103812 | 29 | 149 | 0.0 | 0.0 | 0.00 | 0.00 | 0.00 | 97 | 1024.3 |
| 20260502103309 | 29 | 149 | 0.0 | 0.0 | 0.00 | 0.00 | 0.00 | 97 | 1024.5 |
| 20260502102807 | 30 | 149 | 0.0 | 0.0 | 0.00 | 0.00 | 0.00 | 97 | 1024.3 |
| 20260502102306 | 29 | 141 | 0.0 | 0.0 | 0.00 | 0.00 | 0.00 | 97 | 1024.3 |
| 20260502101801 | 30 | 140 | 0.0 | 0.0 | 0.00 | 0.00 | 0.00 | 96 | 1024.3 |
| 20260502101259 | 29 | 136 | 0.0 | 0.0 | 0.00 | 0.00 | 0.00 | 96 | 1024.3 |
| 20260502100756 | 30 | 121 | 0.0 | 0.0 | 0.00 | 0.00 | 0.00 | 96 | 1024.3 |
| 20260502100255 | 30 | 127 | 0.0 | 0.0 | 0.00 | 0.00 | 0.00 | 96 | 1024.2 |
| 20260502091229 | 31 | 165 | 0.0 | 0.0 | 0.00 | 0.00 | 0.00 | 95 | 1024.0 |
| 20260502090727 | 31 | 164 | 0.0 | 0.0 | 0.00 | 0.00 | 0.00 | 96 | 1023.7 |
| 20260502090223 | 31 | 163 | 0.0 | 0.0 | 0.00 | 0.00 | 0.00 | 96 | 1023.8 |
| 20260502071119 | 34 | 157 | 0.0 | 0.0 | 0.00 | 0.00 | 0.00 | 89 | 1023.1 |
| 20260502070617 | 34 | 158 | 0.0 | 0.0 | 0.00 | 0.00 | 0.00 | 88 | 1023.1 |
| 20260502070115 | 34 | 151 | 0.0 | 0.0 | 0.00 | 0.00 | 0.00 | 88 | 1022.8 |
| 20260502065613 | 34 | 186 | 0.0 | 0.0 | 0.00 | 0.00 | 0.00 | 88 | 1022.6 |
| 20260502065110 | 34 | 157 | 0.0 | 0.0 | 0.00 | 0.00 | 0.00 | 87 | 1023.0 |
| 20260502064609 | 34 | 204 | 0.0 | 0.0 | 0.00 | 0.00 | 0.00 | 87 | 1022.6 |
| 20260502064105 | 34 | 217 | 0.0 | 0.0 | 0.00 | 0.00 | 0.00 | 87 | 1022.5 |
| 20260502063603 | 35 | 227 | 0.0 | 0.0 | 0.00 | 0.00 | 0.00 | 86 | 1022.5 |
| 20260502063100 | 35 | 235 | 0.0 | 0.0 | 0.00 | 0.00 | 0.00 | 84 | 1022.8 |
| 20260502062558 | 36 | 101 | 1.0 | 1.0 | 0.00 | 0.00 | 0.00 | 84 | 1022.5 |
| 20260502062055 | 35 | 229 | 0.0 | 0.0 | 0.00 | 0.00 | 0.00 | 84 | 1022.3 |
| 20260502061553 | 35 | 200 | 0.0 | 0.0 | 0.00 | 0.00 | 0.00 | 85 | 1022.3 |
| 20260502061050 | 36 | 207 | 0.0 | 0.0 | 0.00 | 0.00 | 0.00 | 85 | 1022.5 |
| 20260502060545 | 36 | 209 | 0.0 | 0.0 | 0.00 | 0.00 | 0.00 | 85 | 1022.3 |
| 20260502060042 | 36 | 172 | 0.0 | 0.0 | 0.00 | 0.00 | 0.00 | 84 | 1022.1 |
| 20260502055540 | 37 | 190 | 0.0 | 0.0 | 0.00 | 0.00 | 0.00 | 84 | 1022.1 |
| 20260502055038 | 37 | 167 | 0.0 | 0.0 | 0.00 | 0.00 | 0.00 | 82 | 1022.0 |
| 20260502054537 | 37 | 164 | 0.0 | 0.0 | 0.00 | 0.00 | 0.00 | 83 | 1021.9 |
| 20260502054033 | 37 | 210 | 0.0 | 0.0 | 0.00 | 0.00 | 0.00 | 81 | 1021.7 |
| 20260502053530 | 37 | 231 | 0.0 | 0.0 | 0.00 | 0.00 | 0.00 | 80 | 1021.7 |
| 20260502053028 | 38 | 213 | 0.0 | 0.0 | 0.00 | 0.00 | 0.00 | 79 | 1021.5 |
| 20260502052526 | 38 | 114 | 0.0 | 0.0 | 0.00 | 0.00 | 0.00 | 80 | 1021.7 |
| 20260502052024 | 38 | 223 | 0.0 | 0.0 | 0.00 | 0.00 | 0.00 | 78 | 1021.9 |
| 20260502051522 | 39 | 234 | 0.0 | 0.0 | 0.00 | 0.00 | 0.00 | 78 | 1021.9 |
| 20260502051020 | 39 | 251 | 0.0 | 0.0 | 0.00 | 0.00 | 0.00 | 78 | 1021.8 |
| 20260502050515 | 39 | 226 | 0.0 | 0.0 | 0.00 | 0.00 | 0.00 | 77 | 1022.1 |
| 20260502050013 | 40 | 220 | 0.0 | 0.0 | 0.00 | 0.00 | 0.00 | 74 | 1021.9 |
| 20260502045509 | 40 | 243 | 0.0 | 0.0 | 0.00 | 0.00 | 0.00 | 75 | 1021.8 |
| 20260502045007 | 39 | 245 | 1.0 | 1.0 | 0.00 | 0.00 | 0.00 | 77 | 1022.1 |
| 20260502044502 | 38 | 228 | 0.0 | 0.0 | 0.00 | 0.00 | 0.00 | 80 | 1021.9 |
| 20260502043959 | 38 | 233 | 0.0 | 0.0 | 0.00 | 0.00 | 0.00 | 80 | 1021.9 |
| 20260502043457 | 39 | 234 | 0.0 | 0.0 | 0.00 | 0.00 | 0.00 | 80 | 1021.8 |
| 20260502042956 | 39 | 210 | 0.0 | 0.0 | 0.00 | 0.00 | 0.00 | 79 | 1021.9 |
| 20260502042453 | 39 | 220 | 0.0 | 0.0 | 0.00 | 0.00 | 0.00 | 78 | 1021.7 |
| 20260502041951 | 40 | 241 | 0.0 | 0.0 | 0.00 | 0.00 | 0.00 | 77 | 1021.8 |
| 20260502041449 | 40 | 234 | 0.0 | 0.0 | 0.00 | 0.00 | 0.00 | 76 | 1021.7 |
| 20260502040945 | 40 | 263 | 1.0 | 1.0 | 0.00 | 0.00 | 0.00 | 76 | 1021.5 |
| 20260502040442 | 40 | 220 | 0.0 | 0.0 | 0.00 | 0.00 | 0.00 | 76 | 1021.4 |
| 20260502035938 | 41 | 222 | 0.0 | 0.0 | 0.00 | 0.00 | 0.00 | 73 | 1021.4 |
| 20260502035434 | 42 | 121 | 0.0 | 0.0 | 0.00 | 0.00 | 0.00 | 72 | 1021.2 |
| 20260502034933 | 42 | 163 | 0.0 | 0.0 | 0.00 | 0.00 | 0.00 | 71 | 1021.3 |
| 20260502034431 | 43 | 140 | 0.0 | 0.0 | 0.00 | 0.00 | 0.00 | 69 | 1021.4 |
| 20260502033929 | 44 | 137 | 0.0 | 0.0 | 0.00 | 0.00 | 0.00 | 68 | 1021.2 |
| 20260502033426 | 43 | 119 | 0.0 | 0.0 | 0.00 | 0.00 | 0.00 | 69 | 1021.3 |
| 20260502032922 | 43 | 101 | 0.0 | 0.0 | 0.00 | 0.00 | 0.00 | 71 | 1021.3 |
| 20260502032419 | 42 | 118 | 0.0 | 0.0 | 0.00 | 0.00 | 0.00 | 72 | 1021.0 |
| 20260502031916 | 42 | 225 | 0.0 | 0.0 | 0.00 | 0.00 | 0.00 | 71 | 1021.0 |
| 20260502031415 | 42 | 317 | 0.0 | 0.0 | 0.00 | 0.00 | 0.00 | 71 | 1020.8 |
| 20260502030913 | 43 | 212 | 0.0 | 0.0 | 0.00 | 0.00 | 0.00 | 70 | 1020.4 |
| 20260502030411 | 43 | 117 | 0.0 | 0.0 | 0.00 | 0.00 | 0.00 | 69 | 1020.6 |
| 20260502025908 | 44 | 133 | 0.0 | 0.0 | 0.00 | 0.00 | 0.00 | 70 | 1020.4 |
| 20260502025405 | 44 | 105 | 0.0 | 1.0 | 0.00 | 0.00 | 0.00 | 68 | 1020.4 |
| 20260502024903 | 44 | 95 | 0.0 | 1.0 | 0.00 | 0.00 | 0.00 | 69 | 1020.6 |
| 20260502024401 | 44 | 116 | 0.0 | 0.0 | 0.00 | 0.00 | 0.00 | 69 | 1020.7 |
| 20260502023858 | 45 | 95 | 0.0 | 0.0 | 0.00 | 0.00 | 0.00 | 67 | 1020.3 |
| 20260502023355 | 45 | 110 | 0.0 | 0.0 | 0.00 | 0.00 | 0.00 | 67 | 1020.3 |
| 20260502022853 | 45 | 91 | 1.0 | 1.0 | 0.00 | 0.00 | 0.00 | 65 | 1019.9 |
| 20260502022349 | 45 | 105 | 0.0 | 0.0 | 0.00 | 0.00 | 0.00 | 66 | 1020.1 |
| 20260502021846 | 46 | 68 | 0.0 | 1.0 | 0.00 | 0.00 | 0.00 | 65 | 1019.8 |
| 20260502021344 | 46 | 32 | 3.0 | 3.0 | 0.00 | 0.00 | 0.00 | 64 | 1020.2 |
| 20260502020841 | 45 | 67 | 1.0 | 1.0 | 0.00 | 0.00 | 0.00 | 65 | 1019.7 |
| 20260502020338 | 46 | 44 | 2.0 | 2.0 | 0.00 | 0.00 | 0.00 | 65 | 1019.8 |
| 20260502015835 | 46 | 100 | 1.0 | 2.0 | 0.00 | 0.00 | 0.00 | 66 | 1019.9 |
| 20260502015332 | 46 | 5 | 2.0 | 3.0 | 0.00 | 0.00 | 0.00 | 65 | 1019.5 |
| 20260502014830 | 46 | 83 | 1.0 | 2.0 | 0.00 | 0.00 | 0.00 | 65 | 1019.3 |
| 20260502014326 | 47 | 190 | 0.0 | 0.0 | 0.00 | 0.00 | 0.00 | 64 | 1019.5 |
| 20260502013822 | 48 | 124 | 0.0 | 0.0 | 0.00 | 0.00 | 0.00 | 63 | 1019.3 |
| 20260502013318 | 50 | 257 | 2.0 | 2.0 | 0.00 | 0.00 | 0.00 | 57 | 1019.1 |
| 20260502012815 | 50 | 136 | 1.0 | 1.0 | 0.00 | 0.00 | 0.00 | 51 | 1018.8 |
| 20260502012313 | 51 | 52 | 0.0 | 0.0 | 0.00 | 0.00 | 0.00 | 50 | 1019.1 |
| 20260502011810 | 51 | 252 | 0.0 | 0.0 | 0.00 | 0.00 | 0.00 | 52 | 1018.8 |
| 20260502011306 | 51 | 246 | 0.0 | 1.0 | 0.00 | 0.00 | 0.00 | 50 | 1019.1 |
| 20260502010803 | 51 | 191 | 0.0 | 0.0 | 0.00 | 0.00 | 0.00 | 49 | 1018.7 |
| 20260502010300 | 51 | 243 | 1.0 | 2.0 | 0.00 | 0.00 | 0.00 | 49 | 1018.6 |
| 20260502005757 | 51 | 14 | 1.0 | 1.0 | 0.00 | 0.00 | 0.00 | 50 | 1018.7 |
| 20260502005255 | 51 | 226 | 0.0 | 0.0 | 0.00 | 0.00 | 0.00 | 49 | 1018.6 |
| 20260502004751 | 51 | 348 | 1.0 | 2.0 | 0.00 | 0.00 | 0.00 | 50 | 1018.6 |
| 20260502004248 | 51 | 233 | 1.0 | 1.0 | 0.00 | 0.00 | 0.00 | 50 | 1018.7 |
| 20260502003746 | 51 | 300 | 4.0 | 7.0 | 0.00 | 0.00 | 0.00 | 50 | 1018.8 |
| 20260502003243 | 52 | 92 | 0.0 | 1.0 | 0.00 | 0.00 | 0.00 | 51 | 1018.8 |
| 20260502002738 | 51 | 0 | 1.0 | 2.0 | 0.00 | 0.00 | 0.00 | 52 | 1018.7 |
| 20260502002236 | 52 | 236 | 5.0 | 6.0 | 0.00 | 0.00 | 0.00 | 49 | 1018.5 |
| 20260502001733 | 52 | 318 | 1.0 | 2.0 | 0.00 | 0.00 | 0.00 | 50 | 1018.6 |
| 20260502001231 | 53 | 251 | 0.0 | 1.0 | 0.00 | 0.00 | 0.00 | 48 | 1018.7 |
| 20260502000729 | 52 | 78 | 2.0 | 3.0 | 0.00 | 0.00 | 0.00 | 46 | 1018.2 |
| 20260502000226 | 52 | 94 | 0.0 | 0.0 | 0.00 | 0.00 | 0.00 | 46 | 1018.4 |
| 20260501235721 | 52 | 296 | 0.0 | 1.0 | 0.00 | 0.00 | 0.00 | 50 | 1018.1 |
| 20260501235218 | 51 | 61 | 0.0 | 1.0 | 0.00 | 0.00 | 0.00 | 51 | 1018.5 |
| 20260501234714 | 51 | 11 | 0.0 | 1.0 | 0.00 | 0.00 | 0.00 | 51 | 1018.6 |
| 20260501234211 | 51 | 293 | 1.0 | 2.0 | 0.00 | 0.00 | 0.00 | 52 | 1018.7 |
| 20260501233709 | 51 | 68 | 5.0 | 7.0 | 0.00 | 0.00 | 0.00 | 50 | 1018.5 |
| 20260501233206 | 51 | 326 | 3.0 | 3.0 | 0.00 | 0.00 | 0.00 | 51 | 1018.7 |
| 20260501232701 | 51 | 184 | 2.0 | 2.0 | 0.00 | 0.00 | 0.00 | 53 | 1018.6 |
| 20260501232159 | 51 | 245 | 5.0 | 8.0 | 0.00 | 0.00 | 0.00 | 53 | 1018.4 |
| 20260501231657 | 51 | 238 | 4.0 | 6.0 | 0.00 | 0.00 | 0.00 | 51 | 1018.4 |
| 20260501231155 | 51 | 320 | 1.0 | 2.0 | 0.00 | 0.00 | 0.00 | 51 | 1018.4 |
| 20260501230653 | 51 | 36 | 2.0 | 3.0 | 0.00 | 0.00 | 0.00 | 50 | 1018.2 |
| 20260501230151 | 52 | 275 | 3.0 | 3.0 | 0.00 | 0.00 | 0.00 | 47 | 1018.2 |
| 20260501225648 | 52 | 332 | 0.0 | 1.0 | 0.00 | 0.00 | 0.00 | 50 | 1017.9 |
| 20260501225144 | 52 | 57 | 3.0 | 6.0 | 0.00 | 0.00 | 0.00 | 50 | 1017.9 |
| 20260501224641 | 52 | 299 | 0.0 | 0.0 | 0.00 | 0.00 | 0.00 | 51 | 1017.9 |
| 20260501224138 | 52 | 47 | 1.0 | 1.0 | 0.00 | 0.00 | 0.00 | 50 | 1018.0 |
| 20260501223635 | 53 | 305 | 1.0 | 1.0 | 0.00 | 0.00 | 0.00 | 49 | 1017.8 |
| 20260501223132 | 53 | 274 | 3.0 | 3.0 | 0.00 | 0.00 | 0.00 | 45 | 1017.6 |
| 20260501222627 | 54 | 299 | 2.0 | 3.0 | 0.00 | 0.00 | 0.00 | 44 | 1017.6 |
| 20260501222125 | 55 | 251 | 1.0 | 2.0 | 0.00 | 0.00 | 0.00 | 41 | 1017.5 |
| 20260501221621 | 56 | 47 | 1.0 | 1.0 | 0.00 | 0.00 | 0.00 | 38 | 1017.4 |
| 20260501221119 | 57 | 77 | 1.0 | 1.0 | 0.00 | 0.00 | 0.00 | 38 | 1017.1 |
| 20260501220617 | 58 | 187 | 1.0 | 2.0 | 0.00 | 0.00 | 0.00 | 36 | 1017.3 |
| 20260501220113 | 59 | 208 | 0.0 | 0.0 | 0.00 | 0.00 | 0.00 | 34 | 1017.4 |
| 20260501215610 | 59 | 118 | 1.0 | 1.0 | 0.00 | 0.00 | 0.00 | 34 | 1017.1 |
| 20260501215105 | 59 | 14 | 1.0 | 2.0 | 0.00 | 0.00 | 0.00 | 41 | 1017.5 |
| 20260501214600 | 58 | 218 | 0.0 | 0.0 | 0.00 | 0.00 | 0.00 | 35 | 1017.4 |
| 20260501214056 | 57 | 254 | 1.0 | 1.0 | 0.00 | 0.00 | 0.00 | 38 | 1017.5 |
| 20260501213553 | 52 | 210 | 0.0 | 0.0 | 0.00 | 0.00 | 0.00 | 50 | 1017.6 |
| 20260501213049 | 50 | 246 | 0.0 | 1.0 | 0.00 | 0.00 | 0.00 | 52 | 1017.8 |
| 20260501212546 | 50 | 160 | 0.0 | 0.0 | 0.00 | 0.00 | 0.00 | 56 | 1017.6 |
| 20260501212043 | 50 | 182 | 1.0 | 2.0 | 0.00 | 0.00 | 0.00 | 55 | 1017.8 |
| 20260501211539 | 51 | 81 | 4.0 | 5.0 | 0.00 | 0.00 | 0.00 | 51 | 1017.8 |
| 20260501211038 | 51 | 78 | 3.0 | 3.0 | 0.00 | 0.00 | 0.00 | 49 | 1017.4 |
| 20260501210533 | 51 | 247 | 0.0 | 0.0 | 0.00 | 0.00 | 0.00 | 49 | 1017.4 |
| 20260501210030 | 51 | 133 | 0.0 | 0.0 | 0.00 | 0.00 | 0.00 | 49 | 1017.6 |
| 20260501205527 | 51 | 142 | 0.0 | 0.0 | 0.00 | 0.00 | 0.00 | 48 | 1017.4 |
| 20260501205025 | 52 | 184 | 0.0 | 0.0 | 0.00 | 0.00 | 0.00 | 43 | 1017.3 |
| 20260501204521 | 51 | 56 | 2.0 | 5.0 | 0.00 | 0.00 | 0.00 | 46 | 1016.8 |
| 20260501204017 | 50 | 88 | 0.0 | 1.0 | 0.00 | 0.00 | 0.00 | 49 | 1016.8 |
| 20260501203514 | 50 | 276 | 4.0 | 5.0 | 0.00 | 0.00 | 0.00 | 45 | 1017.1 |